Regional Weather Roundup
Issued by NWS

Home | Current Version | Previous Version | Text Only | Print | Product List | Glossary On
Versions: 1 2 3 4 5 6 7 8 9 10 11 12 13 14 15 16 17 18 19 20 21 22 23 24 25 26 27 28 29 30 31 32 33 34 35 36 37 38 39 40 41 42 43 44 45 46 47 48 49 50
000
ASUS45 KABQ 021010
RWRNM
WEATHER ROUNDUP FOR NEW MEXICO
NATIONAL WEATHER SERVICE ALBUQUERQUE NM
400 AM MDT THU OCT 02 2014

NOTE: "FAIR" MEANS FEW OR NO CLOUDS BELOW 12,000 FEET AGL WITH NO
       SIGNIFICANT WEATHER OR OBSTRUCTIONS TO VISION.

      THIS PRODUCT IS RELEASED AS TWO VERSIONS.  ONE VERSION NEAR
      THE TOP OF THE HOUR CONTAINING PRELIMINARY DATA FROM ALBUQUERQUE
      AND OTHER STATIONS.  A FINAL VERSION WITH ADDITIONAL DATA IS
      ISSUED ABOUT 10 MINUTES AFTER THE HOUR.

NMZ501-503-504-510>518-021100-
NORTHWEST PLATEAU/NORTHCENTRAL MOUNTAINS

CITY           SKY/WX    TMP DP  RH WIND       PRES   REMARKS
FARMINGTON     CLEAR     45  28  51 W18       30.13R
LOS ALAMOS     CLEAR     48  31  52 CALM      30.11S
SANTA FE       PTCLDY    47  36  65 N10       30.06S
TAOS           MOCLDY    39  30  70 CALM      30.09S
ANGEL FIRE     FAIR      37  29  73 CALM      30.13R

$$
NMZ402-403-502-505>509-021100-
WESTCENTRAL MOUNTAINS/SOUTHWEST MOUNTAINS

CITY           SKY/WX    TMP DP  RH WIND       PRES   REMARKS
GALLUP         CLEAR     39  30  70 W3        30.19R
GRANTS         CLEAR     39  28  65 N8        30.18S WCI  34
SILVER CITY    CLEAR     52  36  54 N13       30.09R

$$
NMZ407-409-411-412-021100-
SOUTHERN DESERTS

CITY           SKY/WX    TMP DP  RH WIND       PRES   REMARKS
LORDSBURG      FAIR      52  36  54 MISG      30.03S
DEMING         CLEAR     56  38  50 W9        30.02S
LAS CRUCES     CLEAR     56  37  48 W8        30.01R
HOLLOMAN AFB   CLEAR     55  38  52 CALM      29.95S
ALAMOGORDO     CLEAR     57  36  44 NE6       29.97S
T OR C         CLEAR     62  35  36 NW8       30.02R

$$
NMZ519>523-021100-
CENTRAL VALLEYS/CENTRAL HIGHLANDS

CITY           SKY/WX    TMP DP  RH WIND       PRES   REMARKS
ALBUQUERQUE    PTCLDY    57  36  45 NW13      30.07R
DOUBLE EAGLE   CLEAR     52  33  48 NW15G21   30.09S
MORIARTY ARPT  FAIR      50  34  54 NW13      30.07R
CLINES CORNERS CLEAR     44  34  67 NW12      30.06R
BELEN          NOT AVBL
SOCORRO        FAIR      63  33  32 NW17      30.03R

$$
NMZ524>526-539-540-021100-
SOUTHCENTRAL MOUNTAINS

CITY           SKY/WX    TMP DP  RH WIND       PRES   REMARKS
RUIDOSO        NOT AVBL

$$
NMZ527>531-021100-
NORTHEAST HIGHLANDS/NORTHEAST PLAINS

CITY           SKY/WX    TMP DP  RH WIND       PRES   REMARKS
LAS VEGAS      CLEAR     44  33  65 N7        30.05R
RATON          PTCLDY    44  36  73 N13       30.04R
CLAYTON        CLOUDY    50  41  71 N20G29    29.99R

$$
NMZ532>537-021100-
EASTCENTRAL PLAINS

CITY           SKY/WX    TMP DP  RH WIND       PRES   REMARKS
TUCUMCARI      MOCLDY    61  40  45 NE13      29.89R
CANNON AFB     PTCLDY    58  41  52 N14       29.89R
CLOVIS AIRPORT   N/A     57  43  58 N12       29.92R

$$
NMZ028-029-538-021100-
SOUTHEAST PLAINS

CITY           SKY/WX    TMP DP  RH WIND       PRES   REMARKS
ROSWELL        CLEAR     52  45  77 W6        29.89S
CARLSBAD       CLEAR     63  41  44 W7        29.87R
HOBBS          CLEAR     61  41  48 W8        29.88R


$$



USA.gov is the U.S. government's official web portal to all federal, state and local government web resources and services.